| time (UTC) | temp C | wind direction | speed KPH | gust KPH | rain 1hr cm | rain 24hr cm | rain mn cm | humidity % | barometer mb |
| 20260503013509 | 20 | 88 | 0.0 | 3.2 | 0.00 | 0.00 | 0.00 | 12 | 1016.6 |
| 20260503013027 | 20 | 49 | 1.6 | 4.8 | 0.00 | 0.00 | 0.00 | 12 | 1016.4 |
| 20260503012505 | 20 | 108 | 0.0 | 6.4 | 0.00 | 0.00 | 0.00 | 12 | 1016.4 |
| 20260503012012 | 20 | 46 | 1.6 | 6.4 | 0.00 | 0.00 | 0.00 | 11 | 1016.4 |
| 20260503011521 | 20 | 112 | 1.6 | 3.2 | 0.00 | 0.00 | 0.00 | 11 | 1016.3 |
| 20260503011009 | 20 | 73 | 0.0 | 4.8 | 0.00 | 0.00 | 0.00 | 12 | 1016.3 |
| 20260503010511 | 21 | 113 | 1.6 | 4.8 | 0.00 | 0.00 | 0.00 | 12 | 1016.3 |
| 20260503010032 | 21 | 319 | 0.0 | 4.8 | 0.00 | 0.00 | 0.00 | 11 | 1016.2 |
| 20260503005511 | 21 | 90 | 0.0 | 4.8 | 0.00 | 0.00 | 0.00 | 12 | 1016.2 |
| 20260503005007 | 21 | 105 | 0.0 | 4.8 | 0.00 | 0.00 | 0.00 | 12 | 1016.3 |
| 20260503004515 | 21 | 62 | 1.6 | 9.7 | 0.00 | 0.00 | 0.00 | 10 | 1016.2 |
| 20260503004007 | 21 | 97 | 0.0 | 9.7 | 0.00 | 0.00 | 0.00 | 12 | 1016.3 |
| 20260503003509 | 21 | 24 | 3.2 | 9.7 | 0.00 | 0.00 | 0.00 | 10 | 1016.3 |
| 20260503003034 | 22 | 100 | 3.2 | 8.0 | 0.00 | 0.00 | 0.00 | 10 | 1016.3 |
| 20260503002509 | 22 | 99 | 0.0 | 6.4 | 0.00 | 0.00 | 0.00 | 10 | 1016.3 |
| 20260503002004 | 22 | 136 | 0.0 | 6.4 | 0.00 | 0.00 | 0.00 | 11 | 1016.3 |
| 20260503001509 | 22 | 103 | 3.2 | 6.4 | 0.00 | 0.00 | 0.00 | 11 | 1016.3 |
| 20260503001004 | 22 | 176 | 1.6 | 4.8 | 0.00 | 0.00 | 0.00 | 11 | 1016.3 |
| 20260503000504 | 22 | 81 | 1.6 | 4.8 | 0.00 | 0.00 | 0.00 | 10 | 1016.4 |
| 20260503000005 | 22 | 144 | 1.6 | 6.4 | 0.00 | 0.00 | 0.00 | 11 | 1016.4 |
| 20260502235502 | 22 | 90 | 1.6 | 6.4 | 0.00 | 0.00 | 0.00 | 12 | 1016.4 |
| 20260502235003 | 22 | 129 | 1.6 | 11.3 | 0.00 | 0.00 | 0.00 | 11 | 1016.5 |
| 20260502234507 | 22 | 114 | 1.6 | 11.3 | 0.00 | 0.00 | 0.00 | 12 | 1016.5 |
| 20260502234003 | 22 | 338 | 1.6 | 12.9 | 0.00 | 0.00 | 0.00 | 11 | 1016.5 |
| 20260502233506 | 22 | 21 | 4.8 | 12.9 | 0.00 | 0.00 | 0.00 | 11 | 1016.5 |
| 20260502233008 | 22 | 100 | 3.2 | 9.7 | 0.00 | 0.00 | 0.00 | 12 | 1016.6 |
| 20260502232504 | 22 | 49 | 3.2 | 6.4 | 0.00 | 0.00 | 0.00 | 10 | 1016.6 |
| 20260502232006 | 23 | 111 | 1.6 | 8.0 | 0.00 | 0.00 | 0.00 | 11 | 1016.6 |
| 20260502231503 | 23 | 128 | 3.2 | 9.7 | 0.00 | 0.00 | 0.00 | 11 | 1016.7 |
| 20260502231004 | 23 | 143 | 1.6 | 9.7 | 0.00 | 0.00 | 0.00 | 10 | 1016.8 |
| 20260502230503 | 23 | 100 | 3.2 | 8.0 | 0.00 | 0.00 | 0.00 | 12 | 1016.8 |
| 20260502230009 | 23 | 80 | 1.6 | 9.7 | 0.00 | 0.00 | 0.00 | 12 | 1016.8 |
| 20260502225502 | 22 | 218 | 3.2 | 9.7 | 0.00 | 0.00 | 0.00 | 11 | 1016.8 |
| 20260502225005 | 23 | 65 | 1.6 | 8.0 | 0.00 | 0.00 | 0.00 | 12 | 1016.8 |
| 20260502224509 | 23 | 153 | 3.2 | 12.9 | 0.00 | 0.00 | 0.00 | 11 | 1016.8 |
| 20260502224002 | 22 | 76 | 6.4 | 12.9 | 0.00 | 0.00 | 0.00 | 12 | 1016.9 |
| 20260502223503 | 23 | 74 | 3.2 | 8.0 | 0.00 | 0.00 | 0.00 | 11 | 1017.0 |
| 20260502223007 | 22 | 180 | 1.6 | 9.7 | 0.00 | 0.00 | 0.00 | 12 | 1017.0 |
| 20260502222502 | 22 | 162 | 3.2 | 9.7 | 0.00 | 0.00 | 0.00 | 12 | 1017.1 |
| 20260502222003 | 22 | 159 | 1.6 | 17.7 | 0.00 | 0.00 | 0.00 | 12 | 1017.1 |
| 20260502221512 | 22 | 98 | 4.8 | 17.7 | 0.00 | 0.00 | 0.00 | 11 | 1017.3 |
| 20260502221003 | 22 | 38 | 3.2 | 12.9 | 0.00 | 0.00 | 0.00 | 12 | 1017.3 |
| 20260502220506 | 22 | 67 | 1.6 | 12.9 | 0.00 | 0.00 | 0.00 | 12 | 1017.3 |
| 20260502220012 | 22 | 126 | 3.2 | 14.5 | 0.00 | 0.00 | 0.00 | 13 | 1017.3 |
| 20260502215504 | 21 | 265 | 4.8 | 14.5 | 0.00 | 0.00 | 0.00 | 12 | 1017.4 |
| 20260502215004 | 22 | 48 | 6.4 | 14.5 | 0.00 | 0.00 | 0.00 | 12 | 1017.5 |
| 20260502214510 | 22 | 44 | 8.0 | 19.3 | 0.00 | 0.00 | 0.00 | 12 | 1017.7 |
| 20260502214006 | 22 | 65 | 9.7 | 19.3 | 0.00 | 0.00 | 0.00 | 13 | 1017.7 |
| 20260502213506 | 22 | 55 | 3.2 | 14.5 | 0.00 | 0.00 | 0.00 | 12 | 1017.8 |
| 20260502213024 | 22 | 34 | 3.2 | 11.3 | 0.00 | 0.00 | 0.00 | 12 | 1017.9 |
| 20260502212508 | 23 | 58 | 3.2 | 11.3 | 0.00 | 0.00 | 0.00 | 11 | 1018.0 |
| 20260502212007 | 23 | 125 | 1.6 | 8.0 | 0.00 | 0.00 | 0.00 | 13 | 1018.0 |
| 20260502211509 | 22 | 186 | 3.2 | 8.0 | 0.00 | 0.00 | 0.00 | 12 | 1018.2 |
| 20260502211003 | 22 | 235 | 1.6 | 8.0 | 0.00 | 0.00 | 0.00 | 13 | 1018.2 |
| 20260502210503 | 22 | 169 | 3.2 | 6.4 | 0.00 | 0.00 | 0.00 | 12 | 1018.4 |
| 20260502210012 | 22 | 97 | 3.2 | 9.7 | 0.00 | 0.00 | 0.00 | 12 | 1018.5 |
| 20260502205505 | 22 | 112 | 3.2 | 14.5 | 0.00 | 0.00 | 0.00 | 13 | 1018.5 |
| 20260502205005 | 22 | 165 | 4.8 | 14.5 | 0.00 | 0.00 | 0.00 | 13 | 1018.7 |
| 20260502204513 | 22 | 107 | 3.2 | 14.5 | 0.00 | 0.00 | 0.00 | 14 | 1018.7 |
| 20260502204006 | 22 | 82 | 6.4 | 14.5 | 0.00 | 0.00 | 0.00 | 14 | 1018.7 |
| 20260502203503 | 22 | 77 | 4.8 | 14.5 | 0.00 | 0.00 | 0.00 | 14 | 1018.7 |
| 20260502203006 | 22 | 10 | 4.8 | 9.7 | 0.00 | 0.00 | 0.00 | 13 | 1018.7 |
| 20260502202511 | 22 | 93 | 3.2 | 9.7 | 0.00 | 0.00 | 0.00 | 13 | 1018.8 |
| 20260502202005 | 22 | 113 | 3.2 | 11.3 | 0.00 | 0.00 | 0.00 | 14 | 1018.9 |
| 20260502201525 | 22 | 82 | 1.6 | 12.9 | 0.00 | 0.00 | 0.00 | 13 | 1018.9 |
| 20260502201008 | 22 | 98 | 4.8 | 11.3 | 0.00 | 0.00 | 0.00 | 14 | 1018.9 |
| 20260502200509 | 22 | 81 | 3.2 | 11.3 | 0.00 | 0.00 | 0.00 | 14 | 1018.9 |
| 20260502200013 | 22 | 78 | 3.2 | 11.3 | 0.00 | 0.00 | 0.00 | 14 | 1018.9 |
| 20260502195503 | 22 | 231 | 3.2 | 11.3 | 0.00 | 0.00 | 0.00 | 14 | 1019.0 |
| 20260502195006 | 21 | 63 | 3.2 | 12.9 | 0.00 | 0.00 | 0.00 | 15 | 1019.1 |
| 20260502194511 | 21 | 146 | 1.6 | 12.9 | 0.00 | 0.00 | 0.00 | 16 | 1019.1 |
| 20260502194006 | 20 | 153 | 4.8 | 8.0 | 0.00 | 0.00 | 0.00 | 15 | 1019.1 |
| 20260502193506 | 21 | 39 | 4.8 | 9.7 | 0.00 | 0.00 | 0.00 | 15 | 1019.2 |
| 20260502193012 | 21 | 336 | 1.6 | 12.9 | 0.00 | 0.00 | 0.00 | 15 | 1019.3 |
| 20260502192505 | 20 | 122 | 3.2 | 12.9 | 0.00 | 0.00 | 0.00 | 16 | 1019.4 |
| 20260502192006 | 20 | 58 | 6.4 | 12.9 | 0.00 | 0.00 | 0.00 | 15 | 1019.3 |
| 20260502191507 | 20 | 42 | 6.4 | 12.9 | 0.00 | 0.00 | 0.00 | 16 | 1019.5 |
| 20260502191003 | 20 | 54 | 3.2 | 11.3 | 0.00 | 0.00 | 0.00 | 17 | 1019.6 |
| 20260502190506 | 20 | 94 | 4.8 | 16.1 | 0.00 | 0.00 | 0.00 | 16 | 1019.7 |
| 20260502190016 | 20 | 115 | 6.4 | 16.1 | 0.00 | 0.00 | 0.00 | 16 | 1019.8 |
| 20260502185509 | 21 | 72 | 4.8 | 8.0 | 0.00 | 0.00 | 0.00 | 16 | 1019.9 |
| 20260502185011 | 20 | 80 | 1.6 | 6.4 | 0.00 | 0.00 | 0.00 | 16 | 1019.9 |
| 20260502184513 | 20 | 140 | 1.6 | 16.1 | 0.00 | 0.00 | 0.00 | 17 | 1019.9 |
| 20260502184002 | 20 | 105 | 3.2 | 16.1 | 0.00 | 0.00 | 0.00 | 17 | 1020.0 |
| 20260502183503 | 20 | 349 | 4.8 | 14.5 | 0.00 | 0.00 | 0.00 | 16 | 1020.0 |
| 20260502183010 | 20 | 183 | 4.8 | 14.5 | 0.00 | 0.00 | 0.00 | 18 | 1020.3 |
| 20260502182506 | 20 | 155 | 3.2 | 9.7 | 0.00 | 0.00 | 0.00 | 17 | 1020.3 |
| 20260502182006 | 19 | 211 | 1.6 | 14.5 | 0.00 | 0.00 | 0.00 | 17 | 1020.5 |
| 20260502181513 | 19 | 119 | 4.8 | 14.5 | 0.00 | 0.00 | 0.00 | 17 | 1020.5 |
| 20260502181007 | 19 | 198 | 4.8 | 8.0 | 0.00 | 0.00 | 0.00 | 17 | 1020.6 |
| 20260502180508 | 19 | 97 | 1.6 | 16.1 | 0.00 | 0.00 | 0.00 | 16 | 1020.8 |
| 20260502170509 | 17 | 50 | 1.6 | 11.3 | 0.00 | 0.00 | 0.00 | 18 | 1021.3 |
| 20260502164003 | 17 | 22 | 4.8 | 12.9 | 0.00 | 0.00 | 0.00 | 19 | 1021.3 |
| 20260502163503 | 17 | 342 | 1.6 | 12.9 | 0.00 | 0.00 | 0.00 | 19 | 1021.3 |
| 20260502163014 | 17 | 58 | 8.0 | 12.9 | 0.00 | 0.00 | 0.00 | 18 | 1021.4 |
| 20260502162508 | 16 | 346 | 3.2 | 12.9 | 0.00 | 0.00 | 0.00 | 20 | 1021.4 |
| 20260502162007 | 16 | 20 | 3.2 | 12.9 | 0.00 | 0.00 | 0.00 | 21 | 1021.3 |
| 20260502161518 | 16 | 96 | 3.2 | 14.5 | 0.00 | 0.00 | 0.00 | 20 | 1021.4 |
| 20260502161006 | 16 | 22 | 3.2 | 14.5 | 0.00 | 0.00 | 0.00 | 19 | 1021.5 |
| 20260502160510 | 16 | 76 | 3.2 | 12.9 | 0.00 | 0.00 | 0.00 | 19 | 1021.5 |
| 20260502152007 | 15 | 124 | 1.6 | 6.4 | 0.00 | 0.00 | 0.00 | 24 | 1021.9 |
| 20260502151512 | 15 | 88 | 1.6 | 4.8 | 0.00 | 0.00 | 0.00 | 25 | 1021.9 |
| 20260502151007 | 15 | 74 | 1.6 | 4.8 | 0.00 | 0.00 | 0.00 | 27 | 1022.0 |
| 20260502150507 | 14 | 171 | 1.6 | 4.8 | 0.00 | 0.00 | 0.00 | 28 | 1022.0 |
| 20260502130508 | 2 | 138 | 0.0 | 1.6 | 0.00 | 0.00 | 0.00 | 66 | 1022.4 |
| 20260502123507 | 0 | 221 | 0.0 | 0.0 | 0.00 | 0.00 | 0.00 | 71 | 1022.2 |
| 20260502123020 | 0 | 221 | 0.0 | 0.0 | 0.00 | 0.00 | 0.00 | 71 | 1022.2 |
| 20260502122507 | 0 | 221 | 0.0 | 0.0 | 0.00 | 0.00 | 0.00 | 70 | 1022.2 |
| 20260502122006 | 0 | 221 | 0.0 | 0.0 | 0.00 | 0.00 | 0.00 | 69 | 1022.1 |
| 20260502121504 | 0 | 202 | 0.0 | 0.0 | 0.00 | 0.00 | 0.00 | 68 | 1022.1 |
| 20260502121004 | 0 | 206 | 0.0 | 0.0 | 0.00 | 0.00 | 0.00 | 68 | 1022.0 |
| 20260502120503 | 0 | 206 | 0.0 | 3.2 | 0.00 | 0.00 | 0.00 | 68 | 1022.1 |
| 20260502115508 | 1 | 207 | 0.0 | 3.2 | 0.00 | 0.00 | 0.00 | 67 | 1022.0 |
| 20260502115009 | 1 | 207 | 0.0 | 3.2 | 0.00 | 0.00 | 0.00 | 66 | 1022.1 |
| 20260502114524 | 1 | 207 | 0.0 | 3.2 | 0.00 | 0.00 | 0.00 | 66 | 1022.0 |
| 20260502114003 | 1 | 207 | 0.0 | 3.2 | 0.00 | 0.00 | 0.00 | 65 | 1022.0 |
| 20260502113504 | 1 | 207 | 0.0 | 3.2 | 0.00 | 0.00 | 0.00 | 64 | 1022.0 |
| 20260502113007 | 1 | 208 | 0.0 | 3.2 | 0.00 | 0.00 | 0.00 | 64 | 1021.9 |
| 20260502112503 | 2 | 210 | 0.0 | 3.2 | 0.00 | 0.00 | 0.00 | 62 | 1021.9 |
| 20260502112005 | 2 | 246 | 0.0 | 3.2 | 0.00 | 0.00 | 0.00 | 62 | 1022.0 |
| 20260502111516 | 2 | 346 | 0.0 | 3.2 | 0.00 | 0.00 | 0.00 | 60 | 1021.9 |
| 20260502111008 | 2 | 346 | 0.0 | 3.2 | 0.00 | 0.00 | 0.00 | 60 | 1021.9 |
| 20260502110511 | 3 | 346 | 0.0 | 3.2 | 0.00 | 0.00 | 0.00 | 59 | 1021.8 |
| 20260502110004 | 3 | 346 | 0.0 | 3.2 | 0.00 | 0.00 | 0.00 | 56 | 1021.8 |
| 20260502105505 | 3 | 346 | 0.0 | 3.2 | 0.00 | 0.00 | 0.00 | 54 | 1021.8 |
| 20260502105003 | 3 | 346 | 0.0 | 3.2 | 0.00 | 0.00 | 0.00 | 53 | 1021.8 |
| 20260502104521 | 3 | 346 | 0.0 | 3.2 | 0.00 | 0.00 | 0.00 | 54 | 1021.8 |
| 20260502104005 | 3 | 348 | 1.6 | 3.2 | 0.00 | 0.00 | 0.00 | 54 | 1021.8 |
| 20260502103506 | 3 | 338 | 0.0 | 3.2 | 0.00 | 0.00 | 0.00 | 55 | 1021.7 |
| 20260502103020 | 3 | 319 | 0.0 | 3.2 | 0.00 | 0.00 | 0.00 | 56 | 1021.7 |
| 20260502102513 | 2 | 319 | 0.0 | 3.2 | 0.00 | 0.00 | 0.00 | 56 | 1021.7 |
| 20260502102003 | 2 | 279 | 0.0 | 3.2 | 0.00 | 0.00 | 0.00 | 58 | 1021.7 |
| 20260502101509 | 2 | 197 | 0.0 | 3.2 | 0.00 | 0.00 | 0.00 | 61 | 1021.6 |
| 20260502101003 | 2 | 197 | 0.0 | 3.2 | 0.00 | 0.00 | 0.00 | 62 | 1021.5 |
| 20260502100504 | 2 | 195 | 1.6 | 4.8 | 0.00 | 0.00 | 0.00 | 64 | 1021.5 |
| 20260502071522 | 5 | 192 | 0.0 | 3.2 | 0.00 | 0.00 | 0.00 | 51 | 1021.8 |
| 20260502071003 | 5 | 192 | 0.0 | 3.2 | 0.00 | 0.00 | 0.00 | 50 | 1021.8 |
| 20260502070504 | 6 | 192 | 0.0 | 3.2 | 0.00 | 0.00 | 0.00 | 49 | 1021.9 |
| 20260502070007 | 6 | 192 | 0.0 | 3.2 | 0.00 | 0.00 | 0.00 | 49 | 1021.9 |
| 20260502065504 | 6 | 220 | 0.0 | 3.2 | 0.00 | 0.00 | 0.00 | 48 | 1021.9 |
| 20260502065013 | 6 | 221 | 0.0 | 3.2 | 0.00 | 0.00 | 0.00 | 47 | 1022.0 |
| 20260502064517 | 7 | 194 | 0.0 | 6.4 | 0.00 | 0.00 | 0.00 | 46 | 1022.0 |
| 20260502064007 | 7 | 208 | 1.6 | 6.4 | 0.00 | 0.00 | 0.00 | 45 | 1022.0 |
| 20260502063511 | 7 | 199 | 1.6 | 3.2 | 0.00 | 0.00 | 0.00 | 43 | 1022.0 |
| 20260502063007 | 7 | 185 | 0.0 | 3.2 | 0.00 | 0.00 | 0.00 | 44 | 1022.1 |
| 20260502062503 | 7 | 234 | 1.6 | 6.4 | 0.00 | 0.00 | 0.00 | 43 | 1022.0 |
| 20260502062004 | 7 | 235 | 1.6 | 6.4 | 0.00 | 0.00 | 0.00 | 43 | 1022.0 |
| 20260502061513 | 7 | 184 | 0.0 | 3.2 | 0.00 | 0.00 | 0.00 | 43 | 1022.0 |
| 20260502061008 | 8 | 209 | 1.6 | 4.8 | 0.00 | 0.00 | 0.00 | 43 | 1022.0 |
| 20260502060506 | 7 | 215 | 1.6 | 4.8 | 0.00 | 0.00 | 0.00 | 42 | 1022.0 |
| 20260502060034 | 7 | 189 | 1.6 | 3.2 | 0.00 | 0.00 | 0.00 | 43 | 1022.0 |
| 20260502055506 | 8 | 230 | 0.0 | 3.2 | 0.00 | 0.00 | 0.00 | 44 | 1022.1 |
| 20260502055003 | 8 | 230 | 0.0 | 3.2 | 0.00 | 0.00 | 0.00 | 44 | 1022.1 |
| 20260502054506 | 7 | 232 | 0.0 | 3.2 | 0.00 | 0.00 | 0.00 | 43 | 1022.1 |
| 20260502054003 | 7 | 227 | 0.0 | 3.2 | 0.00 | 0.00 | 0.00 | 43 | 1022.0 |
| 20260502053505 | 7 | 232 | 0.0 | 3.2 | 0.00 | 0.00 | 0.00 | 44 | 1021.8 |
| 20260502053016 | 8 | 238 | 0.0 | 3.2 | 0.00 | 0.00 | 0.00 | 44 | 1021.8 |
| 20260502052514 | 8 | 238 | 0.0 | 0.0 | 0.00 | 0.00 | 0.00 | 44 | 1021.8 |
| 20260502052007 | 8 | 238 | 0.0 | 3.2 | 0.00 | 0.00 | 0.00 | 44 | 1021.8 |
| 20260502051524 | 8 | 238 | 0.0 | 3.2 | 0.00 | 0.00 | 0.00 | 42 | 1021.8 |
| 20260502051006 | 8 | 238 | 0.0 | 3.2 | 0.00 | 0.00 | 0.00 | 42 | 1021.7 |
| 20260502050502 | 8 | 238 | 0.0 | 3.2 | 0.00 | 0.00 | 0.00 | 43 | 1021.7 |
| 20260502050016 | 8 | 246 | 0.0 | 41.8 | 0.00 | 0.00 | 0.00 | 41 | 1021.8 |
| 20260502045506 | 8 | 250 | 0.0 | 41.8 | 0.00 | 0.00 | 0.00 | 43 | 1021.8 |
| 20260502045010 | 8 | 247 | 0.0 | 3.2 | 0.00 | 0.00 | 0.00 | 43 | 1021.8 |
| 20260502044518 | 8 | 199 | 0.0 | 3.2 | 0.00 | 0.00 | 0.00 | 43 | 1021.8 |
| 20260502044008 | 8 | 198 | 0.0 | 3.2 | 0.00 | 0.00 | 0.00 | 42 | 1021.8 |
| 20260502043510 | 8 | 198 | 0.0 | 3.2 | 0.00 | 0.00 | 0.00 | 42 | 1021.8 |
| 20260502043003 | 8 | 198 | 0.0 | 3.2 | 0.00 | 0.00 | 0.00 | 41 | 1021.8 |
| 20260502042502 | 8 | 198 | 0.0 | 3.2 | 0.00 | 0.00 | 0.00 | 41 | 1021.8 |
| 20260502042004 | 8 | 198 | 0.0 | 3.2 | 0.00 | 0.00 | 0.00 | 41 | 1021.7 |
| 20260502041529 | 9 | 198 | 0.0 | 3.2 | 0.00 | 0.00 | 0.00 | 40 | 1021.7 |
| 20260502041005 | 9 | 198 | 0.0 | 3.2 | 0.00 | 0.00 | 0.00 | 39 | 1021.6 |
| 20260502040509 | 9 | 119 | 0.0 | 3.2 | 0.00 | 0.00 | 0.00 | 40 | 1021.6 |
| 20260502040043 | 9 | 213 | 0.0 | 3.2 | 0.00 | 0.00 | 0.00 | 40 | 1021.5 |
| 20260502035506 | 9 | 209 | 0.0 | 3.2 | 0.00 | 0.00 | 0.00 | 39 | 1021.5 |
| 20260502035011 | 9 | 210 | 0.0 | 3.2 | 0.00 | 0.00 | 0.00 | 37 | 1021.4 |
| 20260502034506 | 9 | 209 | 0.0 | 3.2 | 0.00 | 0.00 | 0.00 | 36 | 1021.3 |
| 20260502034005 | 10 | 207 | 0.0 | 3.2 | 0.00 | 0.00 | 0.00 | 39 | 1021.2 |
| 20260502033505 | 10 | 206 | 0.0 | 3.2 | 0.00 | 0.00 | 0.00 | 39 | 1021.0 |
| 20260502033027 | 10 | 206 | 0.0 | 3.2 | 0.00 | 0.00 | 0.00 | 37 | 1020.8 |
| 20260502032507 | 10 | 221 | 0.0 | 3.2 | 0.00 | 0.00 | 0.00 | 36 | 1020.8 |
| 20260502032011 | 10 | 221 | 0.0 | 3.2 | 0.00 | 0.00 | 0.00 | 35 | 1020.6 |
| 20260502031526 | 10 | 221 | 0.0 | 3.2 | 0.00 | 0.00 | 0.00 | 35 | 1020.5 |
| 20260502031009 | 10 | 221 | 0.0 | 3.2 | 0.00 | 0.00 | 0.00 | 32 | 1020.5 |
| 20260502030502 | 10 | 220 | 0.0 | 3.2 | 0.00 | 0.00 | 0.00 | 34 | 1020.4 |
| 20260502030020 | 10 | 220 | 0.0 | 3.2 | 0.00 | 0.00 | 0.00 | 33 | 1020.4 |
| 20260502025506 | 10 | 190 | 0.0 | 3.2 | 0.00 | 0.00 | 0.00 | 34 | 1020.3 |
| 20260502025012 | 11 | 190 | 0.0 | 3.2 | 0.00 | 0.00 | 0.00 | 33 | 1020.2 |
| 20260502024518 | 11 | 190 | 0.0 | 3.2 | 0.00 | 0.00 | 0.00 | 33 | 1020.1 |
| 20260502024010 | 11 | 190 | 0.0 | 3.2 | 0.00 | 0.00 | 0.00 | 32 | 1020.0 |
| 20260502023507 | 11 | 138 | 0.0 | 3.2 | 0.00 | 0.00 | 0.00 | 32 | 1019.9 |
| 20260502023032 | 11 | 88 | 0.0 | 3.2 | 0.00 | 0.00 | 0.00 | 31 | 1019.8 |
| 20260502022503 | 12 | 87 | 0.0 | 3.2 | 0.00 | 0.00 | 0.00 | 31 | 1019.7 |
| 20260502022005 | 12 | 62 | 0.0 | 3.2 | 0.00 | 0.00 | 0.00 | 29 | 1019.6 |
| 20260502021520 | 12 | 61 | 0.0 | 3.2 | 0.00 | 0.00 | 0.00 | 27 | 1019.5 |
| 20260502021008 | 13 | 61 | 0.0 | 1.6 | 0.00 | 0.00 | 0.00 | 26 | 1019.5 |
| 20260502020510 | 13 | 61 | 0.0 | 0.0 | 0.00 | 0.00 | 0.00 | 25 | 1019.4 |
| 20260502020028 | 13 | 61 | 0.0 | 3.2 | 0.00 | 0.00 | 0.00 | 25 | 1019.4 |
| 20260502015509 | 14 | 61 | 0.0 | 3.2 | 0.00 | 0.00 | 0.00 | 23 | 1019.3 |
| 20260502015013 | 14 | 61 | 0.0 | 4.8 | 0.00 | 0.00 | 0.00 | 23 | 1019.3 |
| 20260502014504 | 15 | 44 | 1.6 | 4.8 | 0.00 | 0.00 | 0.00 | 23 | 1019.2 |
| 20260502014006 | 15 | 42 | 1.6 | 8.0 | 0.00 | 0.00 | 0.00 | 23 | 1019.1 |